THOR 6

Last updated on Sun Jun 21 2026 00:03:04 GMT+0000 (Coordinated Universal Time)

1 36033U 09058B 26171.24928350 -.00000015 00000+0 00000+0 0 9992 2 36033 0.0302 109.2282 0001684 338.7514 269.3800 1.00271829 61034
UTC large
Height (km)
Speed (km/s)
/
Latitude / Longitude
Inclination (degrees)
Orbital Period (minutes)
Azimuth
Elevation
Range (km)
Doppler Factor

Next 0 passes for location: London (51.5072 / 0.1276)

No passes found over London.
THOR 6